User: anonymous   Login
Location: La Comballaz
(46.3780°N, 7.0817°E)
Time: 07:15:12
(UTC+00:00)
Language:

AO-7 - Orbit

View from above orbital plane
View from above orbital plane
View from above satellite
View from above satellite

Ground track
Ground track

The orbit data is extracted from the following two-line orbital elements,

1 07530U 74089B   22340.88002501 -.00000031  00000-0  91751-4 0  9990
2 07530 101.9272 321.4264 0012458  71.5799  42.0125 12.53659166199073
Epoch (UTC): 06 December 2022 21:07:14
Eccentricity: 0.0012458
inclination: 101.9272°
perigee height: 1439 km
apogee height: 1459 km
right ascension of ascending node: 321.4264°
argument of perigee: 71.5799°
revolutions per day: 12.53659166
mean anomaly at epoch: 42.0125°
orbit number at epoch: 19907

The dashed part of the orbit path shows where the satellite is in the earth's shadow,  

DLR